Location: Blangy-Tronville
(49.8790°N, 2.4226°E)
Time: 20:56:31
(UTC+00:00)

SL-19 R/B - Pass Details

Date: 18 November 2025
Orbit: 795 x 1008 km, 99.6° (Epoch: 10 December)

Event Time Altitude Azimuth Distance (km) Brightness Sun altitude
Rises 18:11:20 0° 162° (SSE) 3,302 7.2 -20.4°
Reaches altitude 10° 18:13:39 10° 163° (SSE) 2,367 6.4 -20.8°
Maximum altitude 18:18:51 88° 250° (WSW) 804 4.0 -21.6°
Drops below altitude 10° 18:24:07 10° 343° (NNW) 2,397 6.7 -22.5°
Sets 18:26:29 0° 344° (NNW) 3,348 7.5 -22.8°
